3rd November 2019 | Noosa, QLD, Australia

Noosa Triathlon (2019)

Relay Teams: Male Open

Pos Name Gun Time Overall Pos Gender (Pos) Swim T1 Cycle T2 Run
1 TEAM HILLY NINO AND DAN (#8648) 01:49:52 1 Male  (1) 00:13:42 00:05:57 00:52:11 00:01:57 00:36:04
2 TEAM M5 MANAGEMENT (#8952) 01:51:13 3 Male  (2) 00:12:01 00:05:19 00:55:04 00:01:58 00:36:49
3 TEAM A GUN TRAM (#8030) 01:52:52 4 Male  (3) 00:12:37 00:04:30 00:55:16 00:02:06 00:38:22
4 TEAM BPM (#8110) 01:54:19 5 Male  (4) 00:13:00 00:04:58 00:59:27 00:02:12 00:34:40
5 TEAM WYNNUM ELITE (#8883) 01:58:31 8 Male  (6) 00:16:36 00:05:12 01:00:32 00:01:52 00:34:18
6 TEAM SUPER FIRE BREATHING RUBBER DUCKIES (#8981) 01:58:44 9 Male  (7) 00:15:08 00:04:34 00:58:22 00:02:00 00:38:39
7 TEAM TOMMY AND THE PUMPS (#8786) 01:59:44 11 Male  (8) 00:14:44 00:04:58 01:02:14 00:01:51 00:35:55
8 TEAM HANNANT (#8329) 01:59:58 12 Male  (9) 00:18:44 00:05:41 00:57:34 00:02:15 00:35:43
9 TEAM MANLY ALLSTARS (#8433) 02:01:07 13 Male  (10) 00:14:40 00:05:04 01:01:25 00:01:55 00:38:01
10 TEAM MENOFHARLECH (#8441) 02:04:18 15 Male  (11) 00:18:33 00:05:24 00:57:54 00:02:06 00:40:19
11 TEAM CLOUGH (#8987) 02:06:12 18 Male  (12) 00:15:30 00:05:07 01:02:41 00:02:04 00:40:48
12 TEAM THE WEAPONS (#8772) 02:07:22 23 Male  (14) 00:18:00 00:05:50 01:02:04 00:02:04 00:39:22
13 Team Tafmtg (#8983) 02:10:24 34 Male  (19) 00:17:05 00:08:46 01:02:45 00:02:33 00:39:13
14 TEAM DARK HORSES (#8209) 02:11:10 37 Male  (20) 00:18:25 00:05:45 01:02:03 00:02:13 00:42:43
15 Team MIKE NOLAN (#8663) 02:12:30 40 Male  (21) 00:18:34 00:05:08 01:03:04 00:02:18 00:43:25
16 Team Yamba Plus Max (#8694) 02:13:05 44 Male  (22) 00:15:35 00:04:38 01:03:47 00:01:59 00:47:04
17 TEAM QUICKZORBJETS (#8527) 02:14:00 48 Male  (23) 00:13:46 00:06:44 01:08:47 00:02:22 00:42:19
18 TEAM YOUR PACE OR MINE (#8891) 02:14:22 51 Male  (25) 00:17:54 00:05:44 01:01:15 00:02:15 00:47:13
19 TEAM BFTC (#8089) 02:14:25 52 Male  (26) 00:16:46 00:05:56 01:04:36 00:01:57 00:45:07
20 TEAM ALOHA GENTS (#8056) 02:15:11 55 Male  (27) 00:19:14 00:07:15 01:05:30 00:02:28 00:40:43
21 TEAM KILLER WHAT? (#8389) 02:17:35 65 Male  (28) 00:20:56 00:06:29 01:09:31 00:02:08 00:38:30
22 TEAM THE TRI-SEXUALS (#8771) 02:17:40 67 Male  (30) 00:21:18 00:05:43 01:05:57 00:01:57 00:42:43
23 TEAM BODYFIT (#8103) 02:17:47 68 Male  (31) 00:16:47 00:05:32 01:05:21 00:02:17 00:47:48
24 TEAM DONT RUIN IT (#8228) 02:18:12 71 Male  (32) 00:17:17 00:05:33 01:09:03 00:02:09 00:44:08
25 TEAM ALPHA TOWER LADS (#8057) 02:19:21 77 Male  (33) 00:19:41 00:06:15 01:06:20 00:02:02 00:45:02
26 TEAM 4 STEVE (#8897) 02:19:31 79 Male  (34) 00:14:44 00:05:07 01:07:16 00:02:23 00:49:59
27 TEAM ACG (#8043) 02:20:19 83 Male  (35) 00:21:16 00:07:05 01:06:12 00:02:05 00:43:38
28 TEAM WOOD RACING (#8878) 02:20:22 84 Male  (36) 00:16:00 00:06:05 01:07:03 00:02:42 00:48:31
29 TEAM YAMBA HOUND DOGS (#8884) 02:20:31 86 Male  (37) 00:23:22 00:06:17 01:02:31 00:02:26 00:45:52
30 TEAM CHAFING THE DREAM (#8129) 02:20:42 87 Male  (38) 00:21:21 00:06:34 01:09:42 00:02:22 00:40:41
31 TEAM BARRACUDA'S (#8076) 02:20:53 92 Male  (40) 00:18:37 00:05:29 01:02:42 00:02:33 00:51:31
32 TEAM LOST IT (#8950) 02:21:57 101 Male  (42) 00:17:33 00:05:49 01:12:24 00:02:03 00:44:05
33 Team Nudgee Trinity (#8482) 02:21:58 103 Male  (44) 00:20:07 00:06:22 01:17:51 00:02:34 00:35:03
34 TEAM SEMI-FIT AMATEURS (#8579) 02:22:13 106 Male  (45) 00:17:16 00:06:33 01:07:22 00:02:10 00:48:51
35 TEAM KOSTKA CRUSADERS (#8395) 02:23:23 113 Male  (46) 00:16:19 00:05:21 01:17:48 00:02:25 00:41:29
36 Team Suppers (#8613) 02:23:51 114 Male  (47) 00:19:51 00:06:01 01:14:14 00:02:32 00:41:11
37 TEAM VISION PT (#9020) 02:23:53 115 Male  (48) 00:19:50 00:04:55 01:09:31 00:02:55 00:46:40
38 TEAM RUN LIKE THE WINDED (#8563) 02:24:13 119 Male  (49) 00:17:40 00:06:25 01:13:27 00:02:28 00:44:11
39 TEAM COW AND CALVES (#8195) 02:24:25 123 Male  (50) 00:18:37 00:06:02 01:06:58 00:02:38 00:50:08
40 TEAM BORN TO TRI (#8105) 02:24:33 124 Male  (51) 00:20:35 00:05:20 01:11:06 00:02:22 00:45:08
41 TEAM ROCKY ROCKETS (#8551) 02:24:38 125 Male  (52) 00:20:47 00:06:01 01:06:32 00:02:29 00:48:47
42 TEAM THE SIMPSONS (#8752) 02:24:39 126 Male  (53) 00:22:03 00:06:18 00:57:28 00:02:44 00:56:04
43 TEAM IVAN STEVE AND PEARCE (#8354) 02:24:51 129 Male  (54) 00:14:40 00:05:51 01:13:28 00:02:43 00:48:08
44 TEAM PENDING (#8965) 02:25:35 131 Male  (56) 00:18:41 00:06:20 01:11:19 00:02:35 00:46:38
45 TEAM THE IMPLICATIONS (#8725) 02:25:41 133 Male  (57) 00:18:05 00:05:59 01:11:45 00:02:18 00:47:33
46 Team K (#8653) 02:26:17 141 Male  (59) 00:19:22 00:06:32 01:17:01 00:03:49 00:39:31
47 TEAM PET SHOP BOYS (#8501) 02:26:19 143 Male  (60) 00:19:28 00:06:12 01:11:04 00:02:43 00:46:49
48 Team Forge (#8642) 02:27:05 149 Male  (61) 00:19:09 00:05:32 01:09:29 00:02:14 00:50:40
49 TEAM TRI'N FOR DAYS (#8824) 02:27:08 150 Male  (62) 00:17:03 00:05:53 01:14:57 00:02:31 00:46:43
50 Team Two And A Half Men (#8838) 02:27:09 151 Male  (63) 00:20:47 00:06:25 00:59:31 00:02:32 00:57:53